This is the latest recevied weather packets stored in our database for station/object OH7GGX-14. If no packets are shown the sender has not sent any weather packets the latest 10 day(s).
| Time | Temp. | Humidity | Pressure | Rain* | Wind** | Luminosity | Snow |
|---|---|---|---|---|---|---|---|
| 1778080290 | 9.44° C | 38% | 1012.9 hPa | 0 mm | - | - | - |
| 1778079690 | 9.44° C | 36% | 1012.8 hPa | 0 mm | - | - | - |
| 1778079090 | 10° C | 37% | 1012.7 hPa | 0 mm | - | - | - |
| 1778078490 | 10° C | 36% | 1012.7 hPa | 0 mm | - | - | - |
| 1778077890 | 10° C | 37% | 1012.6 hPa | 0 mm | - | - | - |
| 1778077290 | 10° C | 39% | 1012.5 hPa | 0 mm | - | - | - |
| 1778076690 | 10° C | 39% | 1012.3 hPa | 0 mm | - | - | - |
| 1778076090 | 10° C | 37% | 1012.2 hPa | 0 mm | - | - | - |
| 1778075490 | 10° C | 40% | 1012.2 hPa | 0 mm | - | - | - |
| 1778074890 | 10° C | 40% | 1012.2 hPa | 0 mm | - | - | - |
| 1778074290 | 10° C | 40% | 1012.1 hPa | 0 mm | - | - | - |
| 1778073690 | 10.56° C | 40% | 1011.9 hPa | 0 mm | - | - | - |
| 1778073090 | 10.56° C | 41% | 1011.9 hPa | 0 mm | - | - | - |
| 1778072490 | 10° C | 41% | 1012 hPa | 0 mm | - | - | - |
| 1778071890 | 10° C | 40% | 1011.6 hPa | 0 mm | - | - | - |
| 1778071290 | 10° C | 39% | 1011.6 hPa | 0 mm | - | - | - |
| 1778070690 | 10° C | 38% | 1011.5 hPa | 0 mm | - | - | - |
| 1778070090 | 10° C | 40% | 1011.4 hPa | 0 mm | - | - | - |
| 1778069490 | 10° C | 38% | 1011.4 hPa | 0 mm | - | - | - |
| 1778068891 | 10.56° C | 40% | 1011.4 hPa | 0 mm | - | - | - |
| 1778068291 | 10.56° C | 39% | 1011.3 hPa | 0 mm | - | - | - |
| 1778067691 | 10.56° C | 41% | 1011.1 hPa | 0 mm | - | - | - |
| 1778067090 | 10° C | 42% | 1011.1 hPa | 0 mm | - | - | - |
| 1778066490 | 9.44° C | 43% | 1010.9 hPa | 0 mm | - | - | - |
| 1778065891 | 9.44° C | 43% | 1011 hPa | 0 mm | - | - | - |
* Rain latest hour (hover to see other rain measurements)
** Current wind speed in m/s (hover to see current wind gust speed)